GW3221 Weather Reports


Display with metric or nautical units.
time (UTC)temp
F
wind
direction
speed
MPH
gust
MPH
rain 1hr
in
rain 24hr
in
rain mn
in
humidity
%
barometer
mb
20260510190043 75 309 2.0 5.0 0.00 0.05 0.00 56 1013.7
20260510184542 74 304 1.0 6.0 0.00 0.07 0.00 58 1013.9
20260510183041 75 281 1.0 6.0 0.00 0.07 0.00 59 1013.8
20260510181601 76 335 1.0 4.0 0.00 0.07 0.00 59 1013.9
20260510180046 75 323 2.0 7.0 0.00 0.07 0.00 57 1013.8
20260510174552 75 285 1.0 5.0 0.00 0.07 0.00 59 1013.8
20260510173037 75 298 1.0 6.0 0.00 0.07 0.00 59 1013.9
20260510171536 77 291 2.0 5.0 0.00 0.07 0.00 58 1013.8
20260510170036 76 326 1.0 6.0 0.00 0.07 0.00 59 1013.7
20260510164542 75 350 1.0 5.0 0.00 0.07 0.00 61 1013.7
20260510163038 74 262 1.0 4.0 0.00 0.07 0.00 58 1013.8
20260510161538 73 316 1.0 4.0 0.00 0.07 0.00 64 1013.7
20260510160041 72 17 2.0 6.0 0.00 0.07 0.00 65 1013.7
20260510154536 72 195 0.0 3.0 0.00 0.07 0.00 69 1013.7
20260510153035 72 135 1.0 5.0 0.00 0.07 0.00 72 1013.9
20260510151544 70 191 0.0 3.0 0.00 0.07 0.00 75 1013.8
20260510150038 69 0 0.0 3.0 0.00 0.07 0.00 75 1014.1
20260510144538 67 269 1.0 2.0 0.00 0.07 0.00 76 1014.0
20260510143037 65 162 1.0 4.0 0.00 0.07 0.00 75 1013.9
20260510141538 64 212 1.0 4.0 0.00 0.07 0.00 71 1014.0
20260510140040 63 231 0.0 1.0 0.00 0.07 0.00 52 1014.0
20260510134542 61 203 0.0 2.0 0.00 0.07 0.00 38 1013.9
20260510133038 60 161 1.0 2.0 0.00 0.07 0.00 4 1014.1
20260510131538 57 280 0.0 1.0 0.00 0.07 0.00 5 1014.0
20260510130037 55 0 0.0 1.0 0.00 0.07 0.00 7 1014.2
20260510124538 55 135 0.0 1.0 0.00 0.07 0.00 9 1014.0
20260510123040 53 139 0.0 2.0 0.00 0.07 0.00 10 1013.9
20260510121538 53 143 0.0 1.0 0.00 0.07 0.00 10 1013.6
20260510120039 53 143 0.0 1.0 0.00 0.07 0.00 11 1013.4
20260510114540 52 23 0.0 2.0 0.00 0.07 0.00 12 1013.3
20260510113044 52 316 0.0 1.0 0.00 0.07 0.00 13 1013.2
20260510111539 52 316 0.0 1.0 0.00 0.07 0.00 13 1013.1
20260510110037 51 0 0.0 3.0 0.00 0.07 0.00 14 1013.0
20260510104539 51 56 0.0 2.0 0.00 0.07 0.00 15 1013.0
20260510103043 51 15 0.0 1.0 0.00 0.07 0.00 15 1012.6
20260510101537 51 0 0.0 2.0 0.00 0.07 0.00 15 1012.5
20260510100052 51 98 0.0 1.0 0.00 0.07 0.00 16 1012.5
20260510094538 51 0 0.0 2.0 0.00 0.07 0.00 16 1012.5
20260510093045 51 0 0.0 2.0 0.00 0.07 0.00 16 1012.2
20260510091544 51 31 0.0 1.0 0.00 0.07 0.00 17 1012.3
20260510090045 50 0 0.0 3.0 0.00 0.07 0.00 17 1012.7
20260510084539 50 33 0.0 3.0 0.00 0.07 0.00 17 1012.5
20260510083045 50 342 1.0 2.0 0.00 0.07 0.00 18 1012.5
20260510081539 50 344 1.0 3.0 0.00 0.07 0.00 19 1012.5
20260510080039 50 0 0.0 1.0 0.00 0.07 0.00 19 1011.7
20260510074535 50 51 1.0 2.0 0.00 0.07 0.00 19 1011.8
20260510073039 50 0 0.0 1.0 0.00 0.07 0.00 19 1011.7
20260510071548 50 0 0.0 1.0 0.00 0.07 0.00 19 1011.7
20260510070039 50 0 0.0 2.0 0.00 0.07 0.00 20 1011.8
20260510064538 50 51 1.0 4.0 0.00 0.07 0.00 20 1011.6
20260510063039 50 0 0.0 1.0 0.00 0.07 0.00 21 1011.2
20260510061548 50 0 0.0 1.0 0.00 0.07 0.00 21 1011.3
20260510060041 50 114 0.0 1.0 0.00 0.07 0.00 21 1011.4
20260510054542 50 0 0.0 1.0 0.00 0.07 0.00 22 1011.6
20260510053037 51 0 0.0 1.0 0.00 0.07 0.00 22 1011.6
20260510051537 51 0 0.0 1.0 0.00 0.07 0.00 22 1011.6
20260510050038 51 0 0.0 1.0 0.00 0.07 0.00 22 1011.7
20260510044537 51 0 0.0 0.0 0.00 0.07 0.00 23 1011.8
20260510043040 51 0 0.0 0.0 0.00 0.07 0.00 24 1011.9
20260510041537 50 0 0.0 0.0 0.00 0.07 0.00 25 1011.9
20260510040040 50 0 0.0 0.0 0.00 0.07 0.00 26 1011.9
20260510034540 50 0 0.0 0.0 0.00 0.07 0.07 27 1011.8
20260510033046 50 0 0.0 0.0 0.00 0.07 0.07 28 1011.8
20260510031545 50 0 0.0 1.0 0.00 0.07 0.07 28 1011.5
20260510030037 50 0 0.0 0.0 0.00 0.07 0.07 28 1011.6
20260510024544 50 0 0.0 0.0 0.00 0.07 0.07 30 1011.6
20260510023037 50 0 0.0 0.0 0.00 0.07 0.07 30 1011.4
20260510021536 51 0 0.0 0.0 0.00 0.07 0.07 31 1011.4
20260510020039 50 0 0.0 1.0 0.00 0.07 0.07 33 1011.3
20260510014537 50 0 0.0 0.0 0.00 0.07 0.07 38 1011.3
20260510013038 50 0 0.0 0.0 0.00 0.07 0.07 39 1011.3
20260510011547 51 0 0.0 0.0 0.00 0.07 0.07 39 1011.1
20260510010037 51 0 0.0 0.0 0.00 0.07 0.07 42 1011.0
20260510004545 52 0 0.0 0.0 0.00 0.07 0.07 45 1010.9
20260510003100 52 0 0.0 0.0 0.00 0.07 0.07 48 1010.8
20260510001540 53 0 0.0 0.0 0.00 0.07 0.07 57 1010.8
20260510000040 54 0 0.0 0.0 0.00 0.07 0.07 59 1010.8
20260509234552 55 0 0.0 0.0 0.00 0.07 0.07 64 1010.9
20260509233041 55 0 0.0 1.0 0.00 0.07 0.07 67 1010.8
20260509231550 56 0 0.0 1.0 0.00 0.07 0.07 68 1010.8
20260509230037 56 0 0.0 2.0 0.00 0.07 0.07 69 1010.9
20260509224539 57 105 0.0 2.0 0.00 0.07 0.07 70 1010.8
20260509223036 57 115 0.0 4.0 0.00 0.07 0.07 66 1010.9
20260509221541 56 0 0.0 4.0 0.00 0.07 0.07 65 1010.6
20260509220041 56 165 1.0 4.0 0.00 0.07 0.07 67 1010.9
20260509214538 57 222 1.0 3.0 0.01 0.07 0.07 68 1010.9
20260509213041 57 122 0.0 2.0 0.03 0.07 0.07 70 1010.9
20260509211539 57 131 0.0 1.0 0.03 0.07 0.07 62 1011.0
20260509210036 55 0 0.0 1.0 0.05 0.07 0.07 61 1011.3
20260509204540 55 0 0.0 2.0 0.04 0.06 0.06 64 1010.8
20260509203039 55 0 0.0 4.0 0.02 0.04 0.04 64 1011.0
20260509201539 56 58 1.0 3.0 0.02 0.04 0.04 67 1010.7
20260509200040 56 310 1.0 3.0 0.00 0.02 0.02 70 1011.2
20260509194538 57 310 0.0 4.0 0.01 0.02 0.02 69 1011.1
20260509193036 57 338 1.0 7.0 0.01 0.02 0.02 71 1011.5
20260509191537 57 314 0.0 2.0 0.01 0.02 0.02 62 1011.7